[[{"header":{"parameterUnit":"m.s-1","parameterCategory":2,"la1":30.2991,"la2":30.254,"lo1":-89.0895,"lo2":-89.0444,"dy":0.0017,"dx":0.0017,"nx":28,"ny":28,"refTime":"2026-02-03T09:00:00:Z","depth":"0","parameterNumber":2,"parameterNumberName":"U-component_of_CURRENTS"},"data":[0,0,0,0,0,0,0,0,0,0,0,0,0,0,0,0,0,0,0,0,0,0,0,0,0,0,0,0,0,0,0,0,0,0,0,0,0,0,0,0,0,0,0,0,0,0,0,0,0,0,0,0,0,0,0,0,0,0,0.4192,0.4192,0,0.4172,0.4171,0.417,0.4137,0.4137,0.4137,0.4137,0.4088,0.4087,0.4086,0,0,0,0,0,0,0,0,0,0,0,0,0,0.4217,0.4216,0.4192,0.4192,0.4192,0.4172,0.4171,0.417,0.4137,0.4137,0.4137,0.4137,0.4089,0.4087,0.4086,0,0,0,0,0,0,0,0,0,0,0,0,0,0.4197,0.4215,0.4192,0.4177,0.4176,0.4172,0.4171,0.417,0.4137,0.4137,0.4137,0.4137,0.4089,0.4087,0.4086,0.4079,0,0,0.408,0.4079,0,0,0,0,0,0,0,0,0.4198,0.4196,0.4179,0.4178,0.4177,0.4161,0.4162,0.414,0.4137,0.4147,0.4137,0.4137,0.4114,0.411,0.4099,0.4076,0.4074,0.408,0.4079,0.4078,0.4078,0,0,0,0,0,0,0,0.42,0.4196,0.4179,0.418,0.4178,0.4177,0.4173,0.4157,0.4127,0.4146,0.4145,0.4151,0.4112,0.4101,0.4098,0.4074,0.408,0.4079,0.4077,0.4077,0.4115,0.4117,0,0,0,0,0,0,0.4212,0.4198,0.4179,0.4179,0.4193,0.4177,0.4173,0.4162,0.4128,0.4124,0.4151,0.4149,0.4104,0.41,0.4096,0.4112,0.4078,0.4077,0.4076,0.4113,0.4115,0.4117,0,0,0,0,0,0,0.4212,0.421,0.418,0.4193,0.419,0.4177,0.4166,0.4162,0.4151,0.4133,0.4127,0.4144,0.4104,0.4099,0.4103,0.4109,0.4076,0.4074,0.411,0.4113,0.4116,0.4126,0,0,0,0,0,0,0.4212,0.4209,0.4191,0.4193,0.419,0.4175,0.4166,0.4162,0.4158,0.4155,0.4125,0.4121,0.4103,0.4106,0.4101,0.4106,0.4073,0.4107,0.4112,0.4115,0.4123,0.4129,0.4134,0,0,0,0,0,0.4213,0.4217,0.419,0.4188,0.4169,0.4175,0.4172,0.416,0.4158,0.4149,0.415,0.4122,0.4128,0.4106,0.41,0.4104,0.4106,0.411,0.4115,0.4121,0.4128,0.4134,0,0,0,0,0,0,0.4211,0.4214,0.4185,0.4183,0.417,0.4172,0.4176,0.4163,0.4154,0.4155,0.4136,0.4132,0.4146,0.4133,0.4109,0.4134,0.4116,0.412,0.4123,0.413,0.4135,0.4085,0.4071,0,0,0,0,0,0.4201,0.4204,0.4194,0.4185,0.4189,0.4176,0.4174,0.4161,0.4164,0.4158,0.4146,0.4148,0.4161,0.415,0.4158,0.4153,0.4163,0.4161,0.4167,0.4171,0.4132,0.4196,0.4202,0.4133,0.4132,0.4132,0,0,0.4188,0.4198,0.4189,0.4184,0.4181,0.4174,0.4174,0.4177,0.4164,0.4156,0.4149,0.4166,0.4171,0.4182,0.4185,0.4164,0.4204,0.4177,0.418,0.4137,0.4201,0.4207,0.4213,0.4136,0.4135,0.4135,0,0,0.4188,0.4184,0.4183,0.4176,0.4176,0.4178,0.418,0.4178,0.4174,0.4178,0.4182,0.4192,0.4207,0.4197,0.42,0.4238,0.4243,0.4263,0.4226,0.429,0.4295,0.4299,0.4342,0.435,0.4251,0.4251,0.4251,0,0.4171,0.4158,0.418,0.4178,0.4169,0.4182,0.4163,0.4171,0.4164,0.4151,0.4183,0.4203,0.4208,0.4199,0.4221,0.4241,0.4284,0.4194,0.4294,0.4298,0.4302,0.4345,0.4353,0.4252,0.4252,0.4252,0.4252,0,0.417,0.4141,0.4155,0.4148,0.4143,0.4141,0.415,0.4147,0.4165,0.4156,0.4169,0.4197,0.4191,0.4222,0.4231,0.4256,0.4281,0.4305,0.4266,0.4309,0.4353,0.4361,0.4253,0.4253,0.4253,0.4252,0,0,0.4175,0.4153,0.4156,0.4117,0.4122,0.4122,0.4119,0.4104,0.4087,0.4118,0.4099,0.4144,0.4147,0.4152,0.4174,0.4222,0.4307,0.4273,0.4276,0.4294,0.4452,0.431,0.4306,0.437,0.4371,0.4372,0.4476,0,0.4155,0.4143,0.4137,0.4091,0.4068,0.4066,0.4057,0.4044,0.4057,0.4052,0.4083,0.4093,0.4128,0.4136,0.4189,0.4281,0.4328,0.4275,0.4423,0.4425,0.4277,0.431,0.4074,0.4133,0.4485,0.4486,0.4487,0,0.4136,0.4132,0.4089,0.403,0.4025,0.4009,0.3984,0.3975,0.3969,0.3977,0.3979,0.4008,0.4047,0.4104,0.4246,0.4224,0.4321,0.4403,0.441,0.4262,0.4297,0.4145,0.4135,0.4007,0.4501,0.45,0.4499,0,0.4117,0.4084,0.405,0.4032,0.3989,0.3966,0.3966,0.3945,0.3919,0.3927,0.3915,0.3968,0.4004,0.4138,0.4266,0.4286,0.4443,0.4493,0.4448,0.444,0.4249,0.4219,0.4098,0.4592,0.4592,0.4592,0.4591,0,0.4083,0.4049,0.404,0.4011,0.3961,0.3952,0.3899,0.3893,0.3875,0.3824,0.3875,0.3862,0.4026,0.4114,0.4256,0.435,0.4435,0.4418,0.4448,0.4248,0.4219,0.4105,0.4089,0.4596,0.4595,0.4594,0.4593,0,0.4034,0.403,0.3967,0.3941,0.3926,0.3899,0.3852,0.381,0.3819,0.376,0.3761,0.3809,0.3923,0.4059,0.4269,0.4305,0.4305,0.4451,0.418,0.4172,0.3967,0.3962,0.3795,0.3722,0.4409,0.4406,0.4404,0,0.3985,0.3956,0.3917,0.3875,0.3855,0.382,0.3771,0.3771,0.3724,0.3715,0.3679,0.3757,0.3791,0.4002,0.4088,0.4249,0.4199,0.4086,0.4048,0.3881,0.3903,0.3832,0.3781,0.3835,0.3828,0.3822,0.3817,0,0.3888,0.3894,0.3874,0.3796,0.3739,0.3674,0.3628,0.3588,0.3571,0.3541,0.3531,0.3575,0.3704,0.3725,0.3864,0.3937,0.3839,0.3969,0.3878,0.3475,0.3309,0.3277,0.3847,0.3766,0.3771,0.3775,0.3778,0.378,0.3817,0.3802,0.3777,0.3697,0.3623,0.353,0.3458,0.3426,0.3359,0.3275,0.3368,0.3334,0.3373,0.3534,0.3576,0.3395,0.3543,0.3304,0.3331,0.3291,0.3118,0.3539,0.3433,0.3436,0.3439,0.3441,0.3443,0,0.3729,0.3731,0.3659,0.3559,0.344,0.3437,0.3335,0.3252,0.3159,0.3099,0.3077,0.2955,0.2939,0.2963,0.2867,0.2775,0.2731,0.2694,0.2547,0.2554,0.2986,0.2851,0.2508,0.2508,0.2508,0.2509,0.2509,0.2509,0.3682,0.3632,0.3608,0.3396,0.3312,0.314,0.3071,0.2972,0.2897,0.2684,0.2526,0.2507,0.2524,0.2449,0.2291,0.2248,0.217,0.2037,0.2164,0.2453,0.2512,0.2568,0.2433,0.2009,0.2008,0.1592,0.1589,0.1586]},{"header":{"parameterUnit":"m.s-1","parameterCategory":2,"la1":30.2991,"la2":30.254,"lo1":-89.0895,"lo2":-89.0444,"dy":0.0017,"dx":0.0017,"nx":28,"ny":28,"refTime":"2026-02-03T09:00:00:Z","depth":"0","parameterNumber":3,"parameterNumberName":"V-component_of_CURRENTS"},"data":[0,0,0,0,0,0,0,0,0,0,0,0,0,0,0,0,0,0,0,0,0,0,0,0,0,0,0,0,0,0,0,0,0,0,0,0,0,0,0,0,0,0,0,0,0,0,0,0,0,0,0,0,0,0,0,0,0,0,-0.0234,-0.0233,0,-0.0207,-0.0206,-0.0206,-0.0211,-0.0211,-0.0212,-0.0212,-0.0216,-0.0216,-0.0215,0,0,0,0,0,0,0,0,0,0,0,0,0,-0.0246,-0.0246,-0.0234,-0.0233,-0.0233,-0.0207,-0.0206,-0.0206,-0.0211,-0.0211,-0.0212,-0.0212,-0.0216,-0.0216,-0.0215,0,0,0,0,0,0,0,0,0,0,0,0,0,-0.0232,-0.0246,-0.0234,-0.0232,-0.0232,-0.0207,-0.0206,-0.0206,-0.0211,-0.0211,-0.0212,-0.0213,-0.0216,-0.0216,-0.0215,-0.0198,0,0,-0.0214,-0.0213,0,0,0,0,0,0,0,0,-0.0233,-0.0232,-0.0233,-0.0232,-0.0232,-0.0213,-0.0212,-0.0205,-0.021,-0.0219,-0.0212,-0.0213,-0.0217,-0.0217,-0.021,-0.0198,-0.0198,-0.0214,-0.0213,-0.0213,-0.0213,0,0,0,0,0,0,0,-0.0234,-0.0233,-0.0223,-0.0232,-0.0232,-0.0218,-0.0217,-0.021,-0.0215,-0.0218,-0.0218,-0.0215,-0.0217,-0.021,-0.021,-0.0199,-0.0214,-0.0213,-0.0213,-0.0213,-0.0154,-0.0152,0,0,0,0,0,0,-0.0239,-0.0234,-0.0224,-0.0222,-0.0234,-0.0217,-0.0216,-0.0218,-0.0214,-0.0214,-0.0214,-0.0215,-0.0211,-0.021,-0.021,-0.0176,-0.0213,-0.0213,-0.0212,-0.0155,-0.0153,-0.0152,0,0,0,0,0,0,-0.0239,-0.0238,-0.0225,-0.0227,-0.0224,-0.0217,-0.0218,-0.0217,-0.0212,-0.0211,-0.0212,-0.0211,-0.0211,-0.0211,-0.0192,-0.0177,-0.0212,-0.0212,-0.0156,-0.0154,-0.0153,-0.0118,0,0,0,0,0,0,-0.024,-0.0239,-0.024,-0.0228,-0.0225,-0.0212,-0.0218,-0.0216,-0.0209,-0.021,-0.0208,-0.0209,-0.0212,-0.0193,-0.0192,-0.0177,-0.0212,-0.0158,-0.0155,-0.0153,-0.012,-0.0115,-0.011,0,0,0,0,0,-0.0241,-0.0238,-0.024,-0.0239,-0.0227,-0.0212,-0.0209,-0.0205,-0.0208,-0.0204,-0.0193,-0.021,-0.0177,-0.0191,-0.019,-0.0175,-0.0159,-0.0156,-0.0153,-0.0123,-0.0116,-0.011,0,0,0,0,0,0,-0.0247,-0.0238,-0.024,-0.0237,-0.0227,-0.0213,-0.0208,-0.0203,-0.0191,-0.0194,-0.0192,-0.0192,-0.0169,-0.0173,-0.0189,-0.0149,-0.0171,-0.0168,-0.0148,-0.0142,-0.0137,-0.0143,-0.0211,0,0,0,0,0,-0.0249,-0.0241,-0.0234,-0.0229,-0.0228,-0.0217,-0.021,-0.0208,-0.0196,-0.0192,-0.0184,-0.0173,-0.0155,-0.015,-0.0139,-0.0118,-0.0121,-0.0107,-0.0102,-0.0098,-0.0101,-0.0082,-0.0076,-0.0143,-0.0143,-0.0143,0,0,-0.0254,-0.0242,-0.0242,-0.0229,-0.0224,-0.0213,-0.0215,-0.0206,-0.019,-0.0194,-0.0168,-0.0156,-0.0144,-0.0117,-0.0108,-0.0121,-0.0077,-0.0094,-0.0091,-0.0096,-0.0078,-0.0072,-0.0066,-0.0141,-0.0141,-0.0141,0,0,-0.0252,-0.0248,-0.0245,-0.0232,-0.022,-0.0209,-0.0207,-0.0192,-0.0182,-0.0154,-0.0147,-0.0122,-0.0102,-0.0083,-0.0073,-0.0031,-0.0049,-0.003,-0.0012,0.0007,0.0012,0.0017,0.0029,0.0034,-0.003,-0.003,-0.003,0,-0.026,-0.025,-0.0241,-0.0229,-0.0215,-0.0208,-0.0198,-0.0181,-0.0157,-0.0138,-0.0145,-0.0087,-0.0083,-0.0037,-0.0025,-0.0021,-0.0018,-0.0039,0.0013,0.0017,0.0021,0.0032,0.0038,-0.0028,-0.0028,-0.0028,-0.0028,0,-0.0256,-0.0245,-0.0239,-0.0219,-0.0203,-0.0192,-0.017,-0.015,-0.0134,-0.0112,-0.0065,-0.0046,-0.0013,-0.0003,-0.0005,0.0034,0.0025,0.0018,-0.0007,0.003,0.004,0.0045,-0.0025,-0.0025,-0.0026,-0.0026,0,0,-0.0282,-0.0246,-0.0242,-0.0224,-0.0196,-0.0179,-0.0149,-0.0112,-0.0075,-0.0055,-0.0001,0.0024,0.0035,0.0048,0.0057,0.007,0.0102,0.0052,0.0052,0.0057,0.0138,0.0142,0.0147,0.01,0.0101,0.0102,0.0136,0,-0.0283,-0.0253,-0.0233,-0.0199,-0.0185,-0.0156,-0.0118,-0.008,-0.0043,0.0014,0.0037,0.0087,0.0056,0.0083,0.0089,0.0107,0.0115,0.0092,0.0107,0.0108,0.0101,0.0154,0.017,0.0202,0.014,0.0141,0.0142,0,-0.0287,-0.0261,-0.0234,-0.0175,-0.0165,-0.014,-0.0068,-0.0032,0.004,0.0072,0.0114,0.014,0.0175,0.0145,0.0167,0.0152,0.0141,0.0143,0.0144,0.0136,0.0121,0.0155,0.0213,0.0125,0.0149,0.0149,0.0148,0,-0.03,-0.0257,-0.0229,-0.0212,-0.0153,-0.0126,-0.0087,-0.0017,0.0041,0.0114,0.0172,0.0199,0.0247,0.0225,0.0225,0.0195,0.0253,0.0215,0.0206,0.0206,0.0217,0.0216,0.0185,0.0224,0.0224,0.0224,0.0224,0,-0.0299,-0.0273,-0.0232,-0.0215,-0.0161,-0.0123,-0.0049,-0.0004,0.0089,0.0185,0.0201,0.0295,0.027,0.0306,0.0261,0.0264,0.028,0.022,0.0222,0.0231,0.0231,0.0151,0.01,0.0225,0.0225,0.0224,0.0224,0,-0.0303,-0.0283,-0.0247,-0.0192,-0.0167,-0.0127,-0.0021,0.0049,0.0119,0.0249,0.028,0.0378,0.0432,0.0406,0.0407,0.0337,0.0293,0.0314,0.0324,0.0325,0.0203,0.0154,0.0146,0.0148,0.0293,0.0293,0.0294,0,-0.0293,-0.028,-0.0232,-0.0195,-0.0166,-0.0097,-0.003,0.0052,0.0142,0.0319,0.0398,0.0495,0.0615,0.0612,0.0508,0.0439,0.0357,0.0369,0.0307,0.0209,0.0156,0.0126,0.0126,0.0338,0.0338,0.0339,0.0339,0,-0.0265,-0.0261,-0.0228,-0.0164,-0.0103,-0.0016,0.0085,0.0163,0.0294,0.0431,0.0637,0.0752,0.0762,0.0744,0.0623,0.0546,0.0322,0.0376,0.0282,0.0196,0.0158,0.0157,0.0291,0.0344,0.0344,0.0343,0.0343,0.0343,-0.0238,-0.0212,-0.0173,-0.0105,-0.0033,0.0089,0.0199,0.0337,0.052,0.0791,0.0835,0.107,0.0928,0.0795,0.0658,0.037,0.0383,0.0275,0.0228,0.0209,0.0199,0.0338,0.0386,0.0385,0.0385,0.0385,0.0385,0,-0.0193,-0.0155,-0.0095,-0.0002,0.0108,0.0137,0.0308,0.0464,0.0724,0.0963,0.1183,0.1247,0.1088,0.0838,0.0438,0.025,0.0187,0.0144,0.0093,0.0105,0.0236,0.0222,0.023,0.023,0.023,0.023,0.023,0.023,-0.0154,-0.0098,-0.0066,0.0118,0.021,0.04,0.0524,0.075,0.0952,0.1291,0.1459,0.1559,0.1327,0.0606,0.0161,0.0069,-0.0031,-0.0056,-0.0094,-0.0047,-0.0039,-0.0032,-0.0057,-0.0109,-0.0109,-0.0186,-0.0188,-0.0189]}],[{"header":{"parameterUnit":"m.s-1","parameterCategory":2,"la1":30.2991,"la2":30.254,"lo1":-89.0895,"lo2":-89.0444,"dy":0.0017,"dx":0.0017,"nx":28,"ny":28,"refTime":"2026-02-03T09:00:00:Z","depth":"2","parameterNumber":2,"parameterNumberName":"U-component_of_CURRENTS"},"data":[0,0,0,0,0,0,0,0,0,0,0,0,0,0,0,0,0,0,0,0,0,0,0,0,0,0,0,0,0,0,0,0,0,0,0,0,0,0,0,0,0,0,0,0,0,0,0,0,0,0,0,0,0,0,0,0,0,0,0.0715,0.0715,0,0.0722,0.0722,0.0722,0.0735,0.0735,0.0736,0.0736,0.0768,0.0768,0.0769,0,0,0,0,0,0,0,0,0,0,0,0,0,0.0674,0.0675,0.0715,0.0715,0.0716,0.0722,0.0722,0.0722,0.0735,0.0735,0.0736,0.0736,0.0768,0.0768,0.0769,0,0,0,0,0,0,0,0,0,0,0,0,0,0.0686,0.0675,0.0715,0.0724,0.0725,0.0722,0.0722,0.0721,0.0735,0.0735,0.0736,0.0737,0.0767,0.0768,0.0769,0.076,0,0,0.0771,0.0771,0,0,0,0,0,0,0,0,0.0685,0.0687,0.0723,0.0724,0.0725,0.073,0.0719,0.0736,0.0735,0.0729,0.0736,0.0737,0.0758,0.0759,0.0756,0.0762,0.0763,0.0771,0.0771,0.0771,0.0772,0,0,0,0,0,0,0,0.0684,0.0687,0.0716,0.0723,0.0724,0.0714,0.0717,0.0722,0.0739,0.073,0.0731,0.0734,0.0759,0.0756,0.0757,0.0763,0.0771,0.0771,0.0772,0.0772,0.0913,0.0917,0,0,0,0,0,0,0.0688,0.0686,0.0716,0.0716,0.0708,0.0715,0.0718,0.0726,0.0739,0.0741,0.0734,0.0735,0.0754,0.0757,0.0759,0.0867,0.0771,0.0772,0.0772,0.091,0.0914,0.0918,0,0,0,0,0,0,0.0688,0.0691,0.0716,0.0702,0.0705,0.0715,0.0724,0.0726,0.0745,0.0742,0.0745,0.0755,0.0755,0.0758,0.0807,0.0863,0.0772,0.0773,0.0906,0.0911,0.0916,0.1007,0,0,0,0,0,0,0.0686,0.0691,0.0705,0.0703,0.0706,0.0732,0.0724,0.0726,0.0746,0.0748,0.076,0.0762,0.0756,0.0806,0.0807,0.0863,0.0773,0.0902,0.0908,0.0914,0.1,0.1015,0.1028,0,0,0,0,0,0.0685,0.0699,0.0706,0.071,0.0723,0.0733,0.0734,0.0741,0.0746,0.076,0.0787,0.0763,0.0848,0.0809,0.081,0.0867,0.0899,0.0907,0.0914,0.0994,0.1012,0.1027,0,0,0,0,0,0,0.0692,0.0701,0.0709,0.0727,0.0739,0.0736,0.0746,0.0754,0.0782,0.0793,0.0792,0.0797,0.0867,0.0856,0.0813,0.0931,0.0875,0.0883,0.0936,0.0952,0.0966,0.0985,0.0774,0,0,0,0,0,0.0699,0.0711,0.0721,0.0738,0.0744,0.075,0.0758,0.0767,0.0786,0.0799,0.0813,0.0845,0.0894,0.0914,0.0941,0.099,0.1015,0.1035,0.1049,0.106,0.1081,0.1188,0.1214,0.0942,0.0942,0.0942,0,0,0.0704,0.0713,0.072,0.074,0.0746,0.0766,0.0756,0.0776,0.0812,0.0798,0.0857,0.0889,0.092,0.099,0.1021,0.0989,0.1149,0.107,0.1079,0.1094,0.1199,0.1225,0.1249,0.0948,0.0947,0.0946,0,0,0.0714,0.0731,0.0742,0.0758,0.0778,0.0787,0.0801,0.0818,0.0848,0.09,0.0925,0.1001,0.1034,0.1094,0.1123,0.1229,0.122,0.1235,0.1315,0.142,0.1443,0.1463,0.1516,0.1541,0.1239,0.1239,0.124,0,0.0725,0.0738,0.0748,0.0768,0.0783,0.0803,0.0824,0.0861,0.09,0.0944,0.0933,0.1071,0.1094,0.122,0.1269,0.1262,0.13,0.1243,0.1437,0.1458,0.1478,0.1527,0.1553,0.1245,0.1244,0.1244,0.1243,0,0.0737,0.0758,0.0767,0.0801,0.0824,0.0844,0.0891,0.094,0.0977,0.1019,0.1144,0.12,0.1285,0.1317,0.1325,0.1488,0.1462,0.1442,0.139,0.151,0.1555,0.158,0.1252,0.125,0.1249,0.1248,0,0,0.0734,0.0767,0.0774,0.0791,0.0841,0.0859,0.0941,0.1017,0.1086,0.1162,0.1263,0.1388,0.143,0.1471,0.151,0.161,0.1779,0.1592,0.1595,0.1635,0.1988,0.1729,0.1731,0.1795,0.18,0.1805,0.1957,0,0.074,0.0769,0.0793,0.0838,0.0854,0.0912,0.0984,0.1069,0.1144,0.125,0.1366,0.1473,0.1485,0.1545,0.1657,0.1757,0.1853,0.1738,0.1874,0.1877,0.1625,0.1755,0.1685,0.1794,0.1982,0.1986,0.1989,0,0.0747,0.076,0.0796,0.0854,0.087,0.0917,0.1034,0.1103,0.1266,0.1331,0.1471,0.1548,0.1742,0.1714,0.1964,0.189,0.1956,0.2017,0.2024,0.1769,0.1666,0.171,0.1833,0.2031,0.2028,0.2025,0.2022,0,0.073,0.0771,0.0796,0.0814,0.0887,0.0939,0.0998,0.1137,0.1222,0.14,0.1486,0.1683,0.1815,0.195,0.2086,0.2045,0.2327,0.2271,0.2098,0.2079,0.2038,0.2003,0.2443,0.2443,0.2443,0.2442,0.2442,0,0.0727,0.0757,0.0792,0.0809,0.0865,0.0928,0.1035,0.112,0.1276,0.1415,0.1536,0.169,0.1891,0.2062,0.2142,0.2199,0.2377,0.2139,0.2118,0.2059,0.2027,0.2239,0.2214,0.2448,0.2446,0.2445,0.2444,0,0.0726,0.0747,0.0773,0.083,0.0861,0.0905,0.1044,0.114,0.1269,0.1458,0.1529,0.176,0.1971,0.2112,0.2346,0.2252,0.2335,0.2305,0.2183,0.2138,0.1997,0.1975,0.2113,0.2105,0.2099,0.2094,0.2089,0,0.0746,0.075,0.0778,0.0806,0.084,0.0922,0.101,0.1137,0.1249,0.1515,0.1619,0.1853,0.2001,0.2166,0.2164,0.2201,0.2286,0.2019,0.1887,0.2007,0.1974,0.1961,0.1948,0.1905,0.19,0.1895,0.1892,0,0.0757,0.0753,0.0748,0.081,0.0879,0.0956,0.1084,0.1163,0.136,0.1529,0.1784,0.1903,0.2026,0.2018,0.1942,0.1943,0.1983,0.1904,0.2195,0.1916,0.1801,0.1768,0.1767,0.1851,0.1855,0.1858,0.186,0.1862,0.0762,0.0747,0.0751,0.0828,0.0905,0.1015,0.1129,0.124,0.1422,0.164,0.18,0.1909,0.184,0.1686,0.1664,0.1628,0.1696,0.1583,0.1606,0.1631,0.1496,0.1367,0.1312,0.1313,0.1314,0.1315,0.1315,0,0.0794,0.0789,0.0808,0.0892,0.1037,0.1096,0.1228,0.1313,0.153,0.1593,0.1774,0.1598,0.1517,0.1507,0.1385,0.1234,0.1331,0.1178,0.1352,0.139,0.1425,0.1288,0.1045,0.1044,0.1043,0.1042,0,0,0.0812,0.0826,0.0836,0.1043,0.1176,0.1353,0.1477,0.1482,0.1492,0.1494,0.1503,0.1514,0.1462,0.1248,0.1174,0.1131,0.1277,0.1097,0.1321,0.1572,0.1607,0.1659,0.1485,0,0,0,0,0]},{"header":{"parameterUnit":"m.s-1","parameterCategory":2,"la1":30.2991,"la2":30.254,"lo1":-89.0895,"lo2":-89.0444,"dy":0.0017,"dx":0.0017,"nx":28,"ny":28,"refTime":"2026-02-03T09:00:00:Z","depth":"2","parameterNumber":3,"parameterNumberName":"V-component_of_CURRENTS"},"data":[0,0,0,0,0,0,0,0,0,0,0,0,0,0,0,0,0,0,0,0,0,0,0,0,0,0,0,0,0,0,0,0,0,0,0,0,0,0,0,0,0,0,0,0,0,0,0,0,0,0,0,0,0,0,0,0,0,0,0.0348,0.0347,0,0.0305,0.0305,0.0305,0.0248,0.0246,0.0245,0.0244,0.0135,0.0133,0.0131,0,0,0,0,0,0,0,0,0,0,0,0,0,0.0364,0.0364,0.0348,0.0347,0.0347,0.0306,0.0305,0.0304,0.0248,0.0246,0.0245,0.0244,0.0136,0.0133,0.0131,0,0,0,0,0,0,0,0,0,0,0,0,0,0.0344,0.0365,0.0348,0.0313,0.0309,0.0306,0.0305,0.0304,0.0248,0.0246,0.0245,0.0243,0.0136,0.0134,0.0131,0.0143,0,0,0.0122,0.012,0,0,0,0,0,0,0,0,0.0345,0.0343,0.0319,0.0315,0.0311,0.0279,0.0271,0.0247,0.0248,0.0272,0.0244,0.0243,0.0178,0.0171,0.0169,0.0138,0.0133,0.0121,0.012,0.0118,0.0118,0,0,0,0,0,0,0,0.0347,0.0345,0.0332,0.0318,0.0313,0.0294,0.0289,0.0266,0.0233,0.027,0.0265,0.026,0.0175,0.0172,0.0166,0.0132,0.0122,0.0119,0.0117,0.0116,0.007,0.0071,0,0,0,0,0,0,0.0353,0.0347,0.0333,0.033,0.0324,0.0295,0.029,0.0292,0.0235,0.0225,0.0261,0.0257,0.0178,0.0169,0.0161,0.0187,0.0118,0.0116,0.0114,0.007,0.007,0.0071,0,0,0,0,0,0,0.0354,0.0353,0.0335,0.0336,0.0332,0.0296,0.0299,0.0292,0.0274,0.0229,0.0218,0.0248,0.0176,0.0166,0.0141,0.0182,0.0114,0.0112,0.0069,0.007,0.007,0.0229,0,0,0,0,0,0,0.0355,0.0353,0.0356,0.0337,0.0333,0.0343,0.03,0.0292,0.0273,0.0267,0.0215,0.0204,0.0174,0.0146,0.0138,0.0176,0.0109,0.0068,0.0069,0.007,0.0223,0.0235,0.0246,0,0,0,0,0,0.0355,0.0375,0.0357,0.0355,0.0338,0.0344,0.0341,0.0309,0.0274,0.0283,0.0241,0.0204,0.0146,0.0145,0.0135,0.0174,0.0068,0.0069,0.007,0.0218,0.0233,0.0245,0,0,0,0,0,0,0.0386,0.037,0.035,0.0363,0.0355,0.0334,0.0335,0.0309,0.0283,0.0268,0.0216,0.0204,0.02,0.0153,0.0152,0.0158,0.0099,0.0099,0.0215,0.0228,0.0239,0.0289,0.0107,0,0,0,0,0,0.0394,0.0401,0.0383,0.0393,0.0389,0.0358,0.0352,0.0333,0.0309,0.0295,0.026,0.0218,0.0202,0.0187,0.0162,0.0165,0.0129,0.0177,0.0189,0.0199,0.023,0.0201,0.0213,0.0075,0.0075,0.0075,0,0,0.0407,0.0399,0.0402,0.0399,0.0385,0.0411,0.0351,0.035,0.0377,0.0287,0.0302,0.0257,0.0209,0.0222,0.0215,0.0187,0.0218,0.0201,0.0211,0.0236,0.0203,0.0217,0.023,0.0076,0.0075,0.0075,0,0,0.0449,0.0431,0.0452,0.0458,0.0446,0.044,0.044,0.042,0.0413,0.0418,0.0367,0.0351,0.0308,0.0306,0.0292,0.0345,0.0279,0.0317,0.0421,0.0392,0.0404,0.0414,0.039,0.0397,0.0323,0.0323,0.0323,0,0.046,0.0492,0.0462,0.0491,0.051,0.0459,0.0502,0.05,0.0478,0.0493,0.0437,0.0411,0.0363,0.0405,0.0423,0.0379,0.0341,0.0382,0.0411,0.042,0.0428,0.04,0.0406,0.0331,0.033,0.0329,0.0328,0,0.0526,0.0552,0.0568,0.0595,0.0615,0.0641,0.0641,0.0656,0.0629,0.0627,0.0643,0.058,0.0563,0.0546,0.0503,0.0545,0.0493,0.0433,0.039,0.0453,0.0418,0.0421,0.0342,0.0339,0.0337,0.0335,0,0,0.0545,0.0602,0.0606,0.0647,0.0673,0.07,0.0759,0.0806,0.0845,0.0816,0.0865,0.0838,0.0785,0.0765,0.0701,0.0685,0.0702,0.0591,0.0585,0.059,0.0638,0.0569,0.0565,0.0639,0.064,0.0641,0.0594,0,0.0601,0.0685,0.0704,0.08,0.0847,0.0855,0.0918,0.0956,0.0958,0.0991,0.0951,0.0944,0.0872,0.0841,0.083,0.0729,0.0716,0.0721,0.0556,0.0552,0.0502,0.0568,0.0516,0.0466,0.0596,0.0597,0.0597,0,0.0658,0.0713,0.0805,0.0914,0.0934,0.0974,0.1067,0.1116,0.1161,0.1157,0.1163,0.1109,0.1104,0.0995,0.0914,0.0913,0.0801,0.072,0.0714,0.0603,0.0489,0.0419,0.0466,0.0601,0.0601,0.06,0.06,0,0.0687,0.0792,0.0869,0.0902,0.1003,0.1042,0.1085,0.115,0.1179,0.123,0.1237,0.124,0.1189,0.1098,0.0937,0.0914,0.0824,0.0758,0.0606,0.0599,0.0502,0.0484,0.0702,0.0702,0.0703,0.0703,0.0703,0,0.0746,0.081,0.0873,0.0915,0.0998,0.1062,0.1123,0.1184,0.1227,0.1271,0.1287,0.1315,0.1202,0.1135,0.0997,0.0824,0.0863,0.0655,0.0593,0.0552,0.0541,0.0607,0.0596,0.0701,0.0701,0.0702,0.0702,0,0.076,0.0804,0.0895,0.0989,0.1002,0.105,0.1089,0.1142,0.1195,0.1246,0.1252,0.1333,0.1284,0.1163,0.1012,0.087,0.0721,0.0636,0.0604,0.0539,0.0505,0.0503,0.0491,0.0488,0.0486,0.0484,0.0483,0,0.0769,0.0818,0.0906,0.0923,0.0943,0.0988,0.1017,0.1089,0.1135,0.1263,0.13,0.1308,0.1339,0.1142,0.0902,0.0674,0.0683,0.0461,0.0415,0.0548,0.0489,0.049,0.0491,0.0346,0.0344,0.0342,0.034,0,0.0794,0.0814,0.088,0.089,0.091,0.0973,0.1015,0.105,0.1159,0.1238,0.1383,0.1428,0.1269,0.1066,0.075,0.0598,0.0504,0.041,0.0561,0.0405,0.0407,0.035,0.0356,0.0322,0.0323,0.0325,0.0326,0.0327,0.078,0.0817,0.0856,0.0865,0.0892,0.0961,0.1019,0.1116,0.1226,0.1366,0.1408,0.1449,0.1192,0.079,0.056,0.0332,0.0359,0.0244,0.0252,0.0263,0.0252,0.0249,0.0133,0.0134,0.0134,0.0135,0.0135,0,0.077,0.0788,0.0814,0.0861,0.0893,0.0899,0.1024,0.1131,0.1301,0.1369,0.1464,0.1191,0.0952,0.0721,0.0322,0.0086,0.0099,0.0055,0.01,0.0117,0.0133,0.0118,-0.0038,-0.0038,-0.0039,-0.0039,0,0,0.0764,0.078,0.0798,0.0824,0.0849,0.0941,0.1023,0.1216,0.1314,0.1409,0.137,0.1274,0.0958,0.0616,0.0327,0.0152,0.0202,0.0129,0.0277,0.0378,0.0397,0.0235,0.023,0,0,0,0,0]}],[{"header":{"parameterUnit":"m.s-1","parameterCategory":2,"la1":30.2991,"la2":30.254,"lo1":-89.0895,"lo2":-89.0444,"dy":0.0017,"dx":0.0017,"nx":28,"ny":28,"refTime":"2026-02-03T09:00:00:Z","depth":"4","parameterNumber":2,"parameterNumberName":"U-component_of_CURRENTS"},"data":[0,0,0,0,0,0,0,0,0,0,0,0,0,0,0,0,0,0,0,0,0,0,0,0,0,0,0,0,0,0,0,0,0,0,0,0,0,0,0,0,0,0,0,0,0,0,0,0,0,0,0,0,0,0,0,0,0,0,-0.0212,-0.0212,0,-0.0209,-0.0209,-0.0209,-0.0194,-0.0193,-0.0193,-0.0193,-0.0133,-0.0131,-0.013,0,0,0,0,0,0,0,0,0,0,0,0,0,-0.0236,-0.0235,-0.0212,-0.0212,-0.0212,-0.0209,-0.0209,-0.0209,-0.0194,-0.0193,-0.0193,-0.0193,-0.0133,-0.0132,-0.013,0,0,0,0,0,0,0,0,0,0,0,0,0,-0.0227,-0.0235,-0.0212,-0.0206,-0.0205,-0.021,-0.0209,-0.0209,-0.0194,-0.0193,-0.0193,-0.0193,-0.0134,-0.0132,-0.013,-0.0122,0,0,-0.0123,-0.0122,0,0,0,0,0,0,0,0,-0.0227,-0.0225,-0.0206,-0.0206,-0.0206,-0.0203,-0.0196,-0.0178,-0.0194,-0.0196,-0.0193,-0.0193,-0.0153,-0.0149,-0.0147,-0.0119,-0.0117,-0.0123,-0.0122,-0.0121,-0.012,0,0,0,0,0,0,0,-0.0228,-0.0226,-0.0209,-0.0207,-0.0206,-0.0214,-0.0212,-0.0192,-0.0173,-0.0196,-0.0195,-0.0198,-0.0152,-0.0149,-0.0145,-0.0116,-0.0123,-0.0121,-0.012,-0.0119,-0.0013,-0.0012,0,0,0,0,0,0,-0.0231,-0.0226,-0.0209,-0.0209,-0.0218,-0.0214,-0.0212,-0.0203,-0.0175,-0.0171,-0.0198,-0.0198,-0.0153,-0.0148,-0.0143,-0.0069,-0.0121,-0.0119,-0.0117,-0.0015,-0.0013,-0.0011,0,0,0,0,0,0,-0.0231,-0.0229,-0.0209,-0.022,-0.0218,-0.0214,-0.0204,-0.0203,-0.0193,-0.0178,-0.0173,-0.0189,-0.0152,-0.0146,-0.0104,-0.0069,-0.0118,-0.0116,-0.0016,-0.0014,-0.0012,0.0038,0,0,0,0,0,0,-0.0231,-0.0228,-0.0226,-0.022,-0.0218,-0.0206,-0.0205,-0.0203,-0.0197,-0.0195,-0.0168,-0.0163,-0.0152,-0.0107,-0.0102,-0.0067,-0.0114,-0.0018,-0.0015,-0.0013,0.0034,0.0042,0.0048,0,0,0,0,0,-0.0232,-0.0227,-0.0225,-0.0224,-0.0213,-0.0206,-0.0206,-0.0201,-0.0196,-0.0191,-0.0161,-0.0163,-0.0085,-0.0104,-0.0098,-0.0062,-0.002,-0.0016,-0.0013,0.0031,0.004,0.0048,0,0,0,0,0,0,-0.0236,-0.0225,-0.0223,-0.0214,-0.021,-0.0204,-0.0205,-0.0197,-0.0172,-0.0164,-0.0146,-0.0138,-0.0086,-0.0083,-0.0105,-0.0023,-0.0052,-0.0047,-0.002,-0.0012,-0.0005,0.0007,-0.0112,0,0,0,0,0,-0.0237,-0.0231,-0.0221,-0.0217,-0.0214,-0.0207,-0.0205,-0.0197,-0.0177,-0.0166,-0.0129,-0.0097,-0.007,-0.0049,-0.0021,0.0019,-0.0015,0.0047,0.0054,0.006,0.0075,0.0043,0.0047,0.0,0.0,-0.0,0,0,-0.0243,-0.0234,-0.0233,-0.0219,-0.0216,-0.0196,-0.0204,-0.0196,-0.0162,-0.0162,-0.009,-0.0071,-0.0054,-0.0,0.0022,0.0008,0.0052,0.0064,0.0069,0.0081,0.0047,0.0051,0.0055,0.0002,0.0002,0.0002,0,0,-0.0246,-0.0238,-0.0232,-0.0219,-0.0208,-0.0195,-0.0189,-0.0159,-0.013,-0.0068,-0.0059,-0.0022,0.0042,0.0057,0.0069,0.0127,0.0087,0.0142,0.019,0.0159,0.0162,0.0164,0.0104,0.0101,0.0146,0.0146,0.0147,0,-0.0251,-0.0232,-0.0231,-0.0213,-0.019,-0.0188,-0.0158,-0.0135,-0.0084,-0.0045,-0.0033,0.0058,0.007,0.0113,0.0144,0.0142,0.011,0.0155,0.0165,0.0167,0.0168,0.0107,0.0103,0.0149,0.0149,0.0149,0.0148,0,-0.0243,-0.0222,-0.0216,-0.0182,-0.0159,-0.0137,-0.0099,-0.0054,-0.0006,0.0029,0.0106,0.0127,0.0186,0.019,0.0193,0.022,0.0187,0.0172,0.0139,0.0176,0.0109,0.0103,0.0153,0.0152,0.0151,0.0151,0,0,-0.0252,-0.0216,-0.021,-0.0173,-0.0131,-0.0103,-0.0044,0.0021,0.0072,0.0132,0.0198,0.0255,0.0276,0.0291,0.0288,0.0265,0.024,0.0238,0.0235,0.017,0.0152,0.0205,0.0203,0.0228,0.0228,0.0228,0.0092,0,-0.0237,-0.0192,-0.017,-0.0103,-0.0066,-0.0025,0.0037,0.0096,0.0154,0.0218,0.0238,0.0304,0.0309,0.0344,0.0325,0.0259,0.0234,0.0277,0.0136,0.0132,0.0167,0.0203,0.0228,0.0088,0.0086,0.0085,0.0085,0,-0.0222,-0.0185,-0.0117,-0.0032,-0.001,0.0052,0.0163,0.0215,0.028,0.0325,0.0378,0.0391,0.0396,0.0386,0.0301,0.0331,0.0268,0.0201,0.0194,0.0229,0.0177,0.005,0.0074,0.0075,0.0076,0.0076,0.0077,0,-0.0208,-0.014,-0.0071,-0.0043,0.0048,0.0124,0.0191,0.0274,0.0316,0.0403,0.0418,0.0444,0.043,0.0378,0.0256,0.0296,0.0103,0.0135,0.0114,0.0113,0.0078,0.0077,0.0079,0.0079,0.008,0.008,0.0081,0,-0.0183,-0.0134,-0.004,0.0002,0.0119,0.0178,0.0296,0.0362,0.0415,0.0413,0.0487,0.0446,0.0428,0.0313,0.0242,0.0139,0.0093,0.0135,0.0099,0.0099,0.0103,0.0071,0.0072,0.0075,0.0076,0.0077,0.0078,0,-0.0179,-0.0133,-0.0043,0.0079,0.0133,0.0233,0.0353,0.0395,0.0461,0.0446,0.0468,0.0436,0.0347,0.0268,0.0128,0.0109,0.0008,-0.003,-0.007,-0.011,0.0052,0.0057,0.0017,0.0018,0.0019,0.0019,0.002,0,-0.0174,-0.0128,0.0013,0.0081,0.0158,0.0293,0.0353,0.0437,0.0423,0.0387,0.0324,0.0292,0.0258,0.0109,0.0044,-0.0037,-0.004,-0.0093,0.0073,0.0085,0.0053,0.0056,0.006,0.0022,0.0022,0.0022,0.0022,0,-0.0159,-0.0106,-0.0032,0.0093,0.0195,0.0267,0.0333,0.0321,0.0322,0.0356,0.0264,0.0261,0.0154,0.0122,0.0052,-0.0029,-0.0036,-0.0081,-0.008,0.0077,0.0091,0.0058,0.0061,0.0026,0.0025,0.0025,0.0025,0,-0.0144,-0.009,-0.0007,0.0108,0.0178,0.0186,0.0261,0.0244,0.0261,0.0213,0.0143,0.0117,0.0102,0.0111,-0.001,-0.0004,0.0068,0.0092,0.0086,0.0082,0.0176,0.0208,0.0159,0,0,0,0,0,-0.0124,-0.0085,-0.0006,0.0092,0.0124,0.0152,0.0179,0.0214,0.0178,0.0138,0.0172,0.0098,0.0097,0.0065,0.0099,0.0012,0.0026,0.0048,0.004,0.0044,0.004,0.015,0,0,0,0,0,0,-0.011,-0.0045,-0.0024,-0.0003,0.0028,0.0052,0.0054,0.0061,0.0053,0.005,0.0064,0.0107,0.0104,0.0082,0.0095,0.009,0.0094,0.0055,0.0056,0.0046,0.0043,0.004,0.0151,0,0,0,0,0]},{"header":{"parameterUnit":"m.s-1","parameterCategory":2,"la1":30.2991,"la2":30.254,"lo1":-89.0895,"lo2":-89.0444,"dy":0.0017,"dx":0.0017,"nx":28,"ny":28,"refTime":"2026-02-03T09:00:00:Z","depth":"4","parameterNumber":3,"parameterNumberName":"V-component_of_CURRENTS"},"data":[0,0,0,0,0,0,0,0,0,0,0,0,0,0,0,0,0,0,0,0,0,0,0,0,0,0,0,0,0,0,0,0,0,0,0,0,0,0,0,0,0,0,0,0,0,0,0,0,0,0,0,0,0,0,0,0,0,0,0.0417,0.0417,0,0.0429,0.043,0.043,0.0466,0.0467,0.0468,0.0469,0.0501,0.0501,0.0501,0,0,0,0,0,0,0,0,0,0,0,0,0,0.04,0.04,0.0417,0.0417,0.0417,0.0429,0.043,0.043,0.0466,0.0467,0.0468,0.0469,0.0501,0.0501,0.0501,0,0,0,0,0,0,0,0,0,0,0,0,0,0.0409,0.04,0.0417,0.0437,0.0439,0.0429,0.043,0.043,0.0466,0.0467,0.0468,0.0469,0.0501,0.0501,0.0501,0.0478,0,0,0.0502,0.0502,0,0,0,0,0,0,0,0,0.0408,0.041,0.0434,0.0436,0.0438,0.0448,0.0435,0.0447,0.0465,0.0455,0.0469,0.047,0.0484,0.0486,0.0485,0.0479,0.0481,0.0502,0.0502,0.0502,0.0502,0,0,0,0,0,0,0,0.0408,0.0409,0.0422,0.0434,0.0436,0.0437,0.044,0.0437,0.0463,0.0456,0.0459,0.046,0.0486,0.0485,0.0486,0.0481,0.0502,0.0502,0.0502,0.0502,0.0445,0.0443,0,0,0,0,0,0,0.0406,0.0408,0.0421,0.0422,0.0426,0.0436,0.0439,0.0443,0.0463,0.0467,0.0459,0.0462,0.0484,0.0486,0.0487,0.0457,0.0502,0.0502,0.0502,0.0446,0.0444,0.0443,0,0,0,0,0,0,0.0406,0.0407,0.0421,0.0416,0.0417,0.0435,0.0439,0.0443,0.046,0.0465,0.0469,0.0475,0.0485,0.0487,0.0497,0.0459,0.0502,0.0502,0.0448,0.0446,0.0443,0.0399,0,0,0,0,0,0,0.0405,0.0407,0.0414,0.0416,0.0418,0.0423,0.0438,0.0442,0.0458,0.0462,0.0479,0.0483,0.0486,0.0497,0.0498,0.046,0.0502,0.045,0.0447,0.0444,0.0402,0.0395,0.0389,0,0,0,0,0,0.0405,0.0409,0.0414,0.0416,0.0425,0.0423,0.0424,0.0441,0.0458,0.0462,0.0476,0.0483,0.0477,0.0497,0.0498,0.0459,0.0452,0.0448,0.0444,0.0405,0.0397,0.0389,0,0,0,0,0,0,0.0406,0.0413,0.0419,0.0426,0.0427,0.043,0.0438,0.0447,0.046,0.0471,0.048,0.0484,0.0471,0.0474,0.0496,0.043,0.0458,0.0454,0.0427,0.0419,0.0413,0.04,0.0503,0,0,0,0,0,0.0407,0.0413,0.0416,0.0422,0.0426,0.0434,0.0439,0.0447,0.0456,0.0464,0.0476,0.0473,0.045,0.0448,0.044,0.0417,0.0417,0.0386,0.0379,0.0373,0.0362,0.0324,0.0313,0.0431,0.0431,0.0431,0,0,0.0409,0.0413,0.0418,0.0422,0.0429,0.0424,0.0441,0.045,0.0439,0.0464,0.0466,0.0461,0.0441,0.041,0.0402,0.0413,0.0343,0.0369,0.0364,0.0355,0.0319,0.0307,0.0297,0.0428,0.0429,0.0429,0,0,0.0408,0.0421,0.0424,0.0426,0.0434,0.043,0.0435,0.0444,0.0444,0.0438,0.0439,0.0414,0.0407,0.0369,0.0348,0.0299,0.0313,0.0295,0.0248,0.0211,0.0201,0.0192,0.0196,0.0188,0.0287,0.0286,0.0286,0,0.041,0.0413,0.0423,0.0424,0.0421,0.0433,0.0425,0.0419,0.0428,0.0407,0.0436,0.0375,0.0372,0.0293,0.0274,0.028,0.0284,0.0283,0.0203,0.0194,0.0186,0.0191,0.0183,0.0284,0.0284,0.0284,0.0285,0,0.0407,0.0411,0.0414,0.0413,0.0407,0.0407,0.0395,0.0387,0.0387,0.037,0.0317,0.0305,0.0265,0.0244,0.0248,0.0168,0.02,0.0205,0.0226,0.0171,0.0181,0.0173,0.028,0.0281,0.0282,0.0283,0,0,0.0406,0.041,0.0413,0.0405,0.0402,0.0392,0.0362,0.0322,0.0288,0.0279,0.0221,0.0171,0.0171,0.0146,0.0136,0.0094,0.0049,0.0127,0.0126,0.0137,0.0001,0.001,0.0003,0.0047,0.0045,0.0043,0.0039,0,0.04,0.0397,0.0393,0.0374,0.0369,0.0352,0.0316,0.0278,0.0249,0.02,0.015,0.0116,0.013,0.0118,0.007,0.0051,0.0023,0.0052,0.0047,0.0047,0.0065,-0.001,0.0036,0.0033,0.0032,0.003,0.0029,0,0.0397,0.0392,0.0389,0.0344,0.0338,0.0336,0.0268,0.0239,0.0161,0.0138,0.0082,0.0058,-0.001,0.0023,-0.0045,-0.0021,-0.0011,-0.0022,-0.0022,-0.0008,0.0039,0.0094,0.0015,0.0017,0.0018,0.0019,0.0019,0,0.0394,0.0377,0.0374,0.0371,0.0335,0.0325,0.0304,0.0237,0.0202,0.0127,0.0088,0.0005,-0.0021,-0.0052,-0.0057,-0.0049,-0.0119,-0.0108,-0.0093,-0.0089,-0.007,-0.0061,-0.0153,-0.0153,-0.0153,-0.0153,-0.0153,0,0.0385,0.0375,0.0391,0.0394,0.0378,0.0348,0.0323,0.0275,0.021,0.0138,0.0088,0.0015,-0.004,-0.0087,-0.0085,-0.0112,-0.0131,-0.012,-0.011,-0.0085,-0.0078,-0.0073,-0.0064,-0.0153,-0.0153,-0.0153,-0.0153,0,0.0379,0.0396,0.0391,0.0382,0.0393,0.0393,0.038,0.0334,0.0281,0.0185,0.0166,0.0036,-0.0038,-0.0076,-0.0132,-0.0138,-0.0162,-0.0151,-0.0101,-0.0083,-0.0098,-0.0091,-0.0167,-0.0167,-0.0167,-0.0168,-0.0168,0,0.0372,0.038,0.0409,0.0443,0.0462,0.0474,0.0464,0.0403,0.0321,0.0183,0.0095,0.002,-0.0064,-0.0109,-0.0163,-0.0167,-0.0157,-0.0153,-0.0164,-0.0127,-0.0109,-0.0102,-0.0095,-0.0168,-0.0168,-0.0168,-0.0168,0,0.0343,0.0376,0.0378,0.0471,0.0503,0.0483,0.0443,0.0393,0.0261,0.0215,0.0078,0.0029,-0.0071,-0.0124,-0.0113,-0.0124,-0.0164,-0.0155,-0.0155,-0.0165,-0.0129,-0.0109,-0.0102,-0.0169,-0.0169,-0.0168,-0.0168,0,0.0326,0.0334,0.0387,0.0454,0.054,0.0502,0.0449,0.035,0.0283,0.0105,0.0067,-0.0012,-0.0068,-0.0103,-0.0112,-0.0112,-0.0126,-0.0113,-0.0115,-0.0115,-0.0107,-0.0054,-0.0083,0,0,0,0,0,0.0306,0.0316,0.0366,0.0413,0.0516,0.0562,0.0441,0.0347,0.0215,0.0138,0.0109,0.0031,-0.0016,-0.0064,-0.0059,-0.0146,-0.0147,-0.0146,-0.0136,-0.0172,-0.0171,-0.0171,0,0,0,0,0,0,0.0285,0.0332,0.0337,0.0424,0.0501,0.0524,0.0488,0.0342,0.0264,0.0165,0.0146,0.0095,0.0048,0.0054,-0.0012,-0.0032,-0.0022,-0.0181,-0.0181,-0.0172,-0.0171,-0.0171,-0.0171,0,0,0,0,0]}]]